TimeCST,TemperatureF,Dew PointF,Humidity,Sea Level PressureIn,VisibilityMPH,Wind Direction,Wind SpeedMPH,Gust SpeedMPH,PrecipitationIn,Events,Conditions,WindDirDegrees,DateUTC
12:56 AM,24.1,17.1,75,30.01,-9999.0,Calm,Calm,-,N/A,,Unknown,0,2013-01-03 06:56:00
1:56 AM,24.1,17.1,75,30.01,-9999.0,Calm,Calm,-,N/A,,Unknown,0,2013-01-03 07:56:00
2:56 AM,24.1,17.1,75,30.02,-9999.0,Calm,Calm,-,N/A,,Unknown,0,2013-01-03 08:56:00
3:56 AM,24.1,15.1,69,30.05,-9999.0,WNW,5.8,-,N/A,,Unknown,290,2013-01-03 09:56:00
4:56 AM,21.0,12.0,68,30.06,-9999.0,Variable,3.5,-,N/A,,Unknown,0,2013-01-03 10:56:00
5:56 AM,17.1,9.0,71,30.09,-9999.0,Variable,3.5,-,N/A,,Unknown,0,2013-01-03 11:56:00
6:56 AM,15.1,7.0,70,30.11,-9999.0,Variable,6.9,-,N/A,,Unknown,0,2013-01-03 12:56:00
7:56 AM,14.0,5.0,67,30.11,-9999.0,Variable,3.5,-,N/A,,Unknown,0,2013-01-03 13:56:00
8:56 AM,16.0,3.9,59,30.12,-9999.0,SSW,4.6,-,N/A,,Unknown,210,2013-01-03 14:56:00
9:56 AM,17.1,3.0,54,30.13,-9999.0,South,3.5,-,N/A,,Unknown,190,2013-01-03 15:56:00
10:56 AM,23.0,5.0,46,30.12,-9999.0,WSW,5.8,-,N/A,,Unknown,250,2013-01-03 16:56:00
11:56 AM,21.9,7.0,53,30.09,-9999.0,WSW,9.2,-,N/A,,Unknown,240,2013-01-03 17:56:00
12:56 PM,24.1,12.9,62,30.06,-9999.0,WSW,12.7,-,N/A,,Unknown,240,2013-01-03 18:56:00
1:56 PM,26.1,15.1,63,30.03,-9999.0,WSW,15.0,20.7,N/A,,Unknown,240,2013-01-03 19:56:00
2:56 PM,27.0,16.0,63,30.01,-9999.0,WSW,12.7,19.6,N/A,,Unknown,250,2013-01-03 20:56:00
3:56 PM,27.0,14.0,58,29.98,-9999.0,WSW,11.5,24.2,N/A,,Unknown,250,2013-01-03 21:56:00
4:56 PM,25.0,12.0,58,29.97,-9999.0,West,12.7,20.7,N/A,,Unknown,260,2013-01-03 22:56:00
5:56 PM,23.0,10.9,60,29.94,-9999.0,West,12.7,21.9,N/A,,Unknown,260,2013-01-03 23:56:00
6:56 PM,23.0,12.9,65,29.90,-9999.0,West,11.5,19.6,N/A,,Unknown,260,2013-01-04 00:56:00
7:56 PM,25.0,14.0,63,29.83,-9999.0,West,9.2,18.4,N/A,,Unknown,260,2013-01-04 01:56:00
8:56 PM,25.0,14.0,63,29.81,-9999.0,West,10.4,17.3,N/A,,Unknown,260,2013-01-04 02:56:00
9:56 PM,27.0,18.0,69,29.81,-9999.0,West,8.1,17.3,N/A,,Unknown,260,2013-01-04 03:56:00
10:56 PM,28.0,19.0,69,29.81,-9999.0,WSW,12.7,25.3,N/A,,Unknown,250,2013-01-04 04:56:00
11:56 PM,27.0,18.0,69,29.81,-9999.0,WSW,11.5,23.0,N/A,,Unknown,250,2013-01-04 05:56:00